^^
Station Historical Data
Daily Summary for January 23, 2018 Units:  Metric    English   Both
« Previous Day
Next Day »
Daily Weekly Monthly Yearly Custom
  High: Low: Average:
Temperature: -17.8 °C -24.3 °C -22.4 °C
Dew Point: -17.8 °C -25.1 °C -23.1 °C
Humidity: Humidity% 87% 91%
Wind Speed: 0km/h 0km/h 0.2km/h
Wind Gust: 0km/h - -
Wind- - ESE
Pressure: 0 hPa 34361.1 hPa -
Precipitation: 25.4 mm    
Historical Graphs
 
 
Tabular Data for January 23, 2018
Time Temperature Dew Point Pressure Wind Wind Speed Wind Gust Humidity Rainfall Rate (Hourly) solar Conditions
-17.8 °C -17.8 °C 0 hPa Calm     Humidity% 0 mm SoftwareType W/m2 Conditions
00:00 -23.4 °C -24 °C 34361.1 hPa Calm     91% 0 mm WeatherDisplay:10.37 W/m2 RA
00:05 -23.4 °C -24 °C 34371.3 hPa Calm     91% 0 mm WeatherDisplay:10.37 W/m2 RA
00:10 -23.3 °C -24 °C 34371.3 hPa Calm     91% 0 mm WeatherDisplay:10.37 W/m2 FEW
00:15 -23.3 °C -23.9 °C 34361.1 hPa Calm     91% 0 mm WeatherDisplay:10.37 W/m2 FEW
00:20 -23.3 °C -23.9 °C 34361.1 hPa Calm     91% 0 mm WeatherDisplay:10.37 W/m2 FEW
00:25 -23.3 °C -23.9 °C 34371.3 hPa Calm     91% 0 mm WeatherDisplay:10.37 W/m2 FEW
00:30 -23.2 °C -23.9 °C 34371.3 hPa Calm     91% 0 mm WeatherDisplay:10.37 W/m2 FEW
00:35 -23.2 °C -23.8 °C 34371.3 hPa Calm     91% 0 mm WeatherDisplay:10.37 W/m2 FEW
00:40 -23.2 °C -23.8 °C 34371.3 hPa Calm     91% 0 mm WeatherDisplay:10.37 W/m2 FEW
00:45 -23.2 °C -23.8 °C 34371.3 hPa Calm     91% 0 mm WeatherDisplay:10.37 W/m2 FEW
00:50 -23.2 °C -23.8 °C 34371.3 hPa Calm     91% 0 mm WeatherDisplay:10.37 W/m2 FEW
00:55 -23.2 °C -23.8 °C 34371.3 hPa Calm     91% 0 mm WeatherDisplay:10.37 W/m2 FEW
01:00 -23.2 °C -23.9 °C 34384.8 hPa Calm     91% 0 mm WeatherDisplay:10.37 W/m2 FEW
01:05 -23.2 °C -23.9 °C 34384.8 hPa Calm     91% 0 mm WeatherDisplay:10.37 W/m2 FEW
01:10 -23.3 °C -23.9 °C 34384.8 hPa Calm     91% 0 mm WeatherDisplay:10.37 W/m2 FEW
01:15 -23.3 °C -24 °C 34384.8 hPa Calm     91% 0 mm WeatherDisplay:10.37 W/m2 FEW
01:20 -23.4 °C -24.1 °C 34384.8 hPa Calm     90% 0 mm WeatherDisplay:10.37 W/m2 FEW
01:25 -23.4 °C -23.5 °C 34384.8 hPa Calm     99% 0 mm WeatherDisplay:10.37 W/m2 FEW
01:30 -23.5 °C -24.3 °C 34384.8 hPa Calm     90% 0 mm WeatherDisplay:10.37 W/m2 FEW
01:35 -23.6 °C -24.3 °C 34384.8 hPa Calm     90% 0 mm WeatherDisplay:10.37 W/m2 FEW
01:40 -23.7 °C -24.4 °C 34384.8 hPa Calm     90% 0 mm WeatherDisplay:10.37 W/m2 FEW
01:45 -23.7 °C -24.4 °C 34395 hPa Calm     90% 0 mm WeatherDisplay:10.37 W/m2 FEW
01:50 -23.7 °C -24.4 °C 34395 hPa Calm     90% 0 mm WeatherDisplay:10.37 W/m2 FEW
01:55 -23.7 °C -24.3 °C 34395 hPa Calm     91% 0 mm WeatherDisplay:10.37 W/m2 FEW
02:00 -23.7 °C -24.3 °C 34395 hPa Calm     91% 0 mm WeatherDisplay:10.37 W/m2 FEW
02:05 -23.7 °C -24.3 °C 34395 hPa Calm     91% 0 mm WeatherDisplay:10.37 W/m2 FEW
02:10 -23.6 °C -24.3 °C 34395 hPa Calm     91% 0 mm WeatherDisplay:10.37 W/m2 FEW
02:15 -23.6 °C -24.2 °C 34405.1 hPa Calm     91% 0 mm WeatherDisplay:10.37 W/m2 FEW
02:20 -23.5 °C -24.2 °C 34405.1 hPa Calm     91% 0 mm WeatherDisplay:10.37 W/m2 FEW
02:25 -23.4 °C -24.1 °C 34405.1 hPa Calm     91% 0 mm WeatherDisplay:10.37 W/m2 FEW
02:30 -23.4 °C -24.1 °C 34405.1 hPa Calm     91% 0 mm WeatherDisplay:10.37 W/m2 FEW
02:35 -23.4 °C -24 °C 34405.1 hPa Calm     91% 0 mm WeatherDisplay:10.37 W/m2 FEW
02:40 -23.3 °C -23.9 °C 34405.1 hPa Calm     92% 0 mm WeatherDisplay:10.37 W/m2 FEW
02:45 -23.3 °C -23.8 °C 34418.7 hPa Calm     92% 0 mm WeatherDisplay:10.37 W/m2 FEW
02:50 -23.2 °C -23.8 °C 34418.7 hPa Calm     92% 0 mm WeatherDisplay:10.37 W/m2 FEW
02:55 -23.2 °C -23.8 °C 34418.7 hPa Calm     92% 0 mm WeatherDisplay:10.37 W/m2 FEW
03:00 -23.2 °C -23.8 °C 34418.7 hPa Calm     92% 0 mm WeatherDisplay:10.37 W/m2 FEW
03:05 -23.2 °C -23.8 °C 34418.7 hPa Calm     92% 0 mm WeatherDisplay:10.37 W/m2 FEW
03:10 -23.2 °C -23.7 °C 34418.7 hPa Calm     92% 0 mm WeatherDisplay:10.37 W/m2 FEW
03:15 -23.1 °C -23.7 °C 34418.7 hPa Calm     92% 0 mm WeatherDisplay:10.37 W/m2 FEW
03:20 -23.1 °C -23.7 °C 34418.7 hPa Calm     92% 0 mm WeatherDisplay:10.37 W/m2 FEW
03:25 -23.1 °C -23.7 °C 34418.7 hPa Calm     92% 0 mm WeatherDisplay:10.37 W/m2 FEW
03:30 -23 °C -23.6 °C 34418.7 hPa Calm     92% 0 mm WeatherDisplay:10.37 W/m2 FEW
03:35 -23 °C -23.6 °C 34418.7 hPa Calm     92% 0 mm WeatherDisplay:10.37 W/m2 FEW
03:40 -23 °C -23.6 °C 34428.8 hPa Calm     92% 0 mm WeatherDisplay:10.37 W/m2 FEW
03:45 -22.9 °C -23.6 °C 34428.8 hPa Calm     92% 0 mm WeatherDisplay:10.37 W/m2 FEW
03:50 -22.9 °C -23.6 °C 34428.8 hPa Calm     92% 0 mm WeatherDisplay:10.37 W/m2 FEW
03:55 -22.9 °C -23.5 °C 34428.8 hPa Calm     92% 0 mm WeatherDisplay:10.37 W/m2 FEW
04:00 -22.9 °C -23.5 °C 34428.8 hPa Calm     92% 0 mm WeatherDisplay:10.37 W/m2 FEW
04:05 -22.9 °C -23.4 °C 34428.8 hPa Calm     92% 0 mm WeatherDisplay:10.37 W/m2 FEW
04:10 -22.8 °C -23.4 °C 34428.8 hPa Calm     92% 0 mm WeatherDisplay:10.37 W/m2 FEW
04:15 -22.8 °C -23.4 °C 34442.4 hPa Calm     92% 0 mm WeatherDisplay:10.37 W/m2 FEW
04:20 -22.8 °C -23.4 °C 34442.4 hPa Calm     92% 0 mm WeatherDisplay:10.37 W/m2 FEW
04:25 -22.8 °C -23.4 °C 34442.4 hPa Calm     92% 0 mm WeatherDisplay:10.37 W/m2 FEW
04:30 -22.8 °C -23.4 °C 34442.4 hPa Calm     92% 0 mm WeatherDisplay:10.37 W/m2 FEW
04:35 -22.8 °C -23.4 °C 34442.4 hPa Calm     92% 0 mm WeatherDisplay:10.37 W/m2 FEW
04:40 -22.7 °C -23.3 °C 34442.4 hPa Calm     92% 0 mm WeatherDisplay:10.37 W/m2 FEW
04:45 -22.7 °C -23.3 °C 34442.4 hPa Calm     92% 0 mm WeatherDisplay:10.37 W/m2 FEW
04:55 -22.8 °C -23.5 °C 34452.6 hPa Calm     91% 0 mm WeatherDisplay:10.37 W/m2 FEW
05:05 -22.9 °C -23.6 °C 34452.6 hPa Calm     91% 0 mm WeatherDisplay:10.37 W/m2 FEW
05:10 -22.9 °C -23.6 °C 34452.6 hPa Calm     91% 0 mm WeatherDisplay:10.37 W/m2 FEW
05:20 -22.9 °C -23.6 °C 34462.7 hPa Calm     91% 0 mm WeatherDisplay:10.37 W/m2 FEW
05:25 -22.9 °C -23.7 °C 34462.7 hPa Calm     91% 0 mm WeatherDisplay:10.37 W/m2 FEW
05:30 -22.9 °C -23.7 °C 34462.7 hPa Calm     91% 0 mm WeatherDisplay:10.37 W/m2 FEW
05:35 -22.9 °C -23.7 °C 34462.7 hPa Calm     91% 0 mm WeatherDisplay:10.37 W/m2 FEW
05:40 -23 °C -23.7 °C 34462.7 hPa Calm     91% 0 mm WeatherDisplay:10.37 W/m2 FEW
05:45 -23 °C -23.7 °C 34462.7 hPa Calm     91% 0 mm WeatherDisplay:10.37 W/m2 FEW
05:50 -23 °C -23.7 °C 34462.7 hPa Calm     91% 0 mm WeatherDisplay:10.37 W/m2 FEW
06:00 -23.1 °C -23.7 °C 34462.7 hPa Calm     91% 0 mm WeatherDisplay:10.37 W/m2 FEW
06:05 -23.1 °C -23.8 °C 34476.3 hPa Calm     91% 0 mm WeatherDisplay:10.37 W/m2 FEW
06:10 -23.2 °C -23.8 °C 34476.3 hPa Calm     91% 0 mm WeatherDisplay:10.37 W/m2 FEW
06:15 -23.2 °C -23.9 °C 34476.3 hPa Calm     90% 0 mm WeatherDisplay:10.37 W/m2 FEW
06:20 -23.3 °C -24 °C 34476.3 hPa Calm     90% 0 mm WeatherDisplay:10.37 W/m2 FEW
06:25 -23.4 °C -24.1 °C 34476.3 hPa Calm     90% 0 mm WeatherDisplay:10.37 W/m2 FEW
06:30 -23.5 °C -24.2 °C 34476.3 hPa Calm     90% 0 mm WeatherDisplay:10.37 W/m2 FEW
06:35 -23.6 °C -24.3 °C 34476.3 hPa Calm     90% 0 mm WeatherDisplay:10.37 W/m2 FEW
06:40 -23.7 °C -24.4 °C 34476.3 hPa Calm     90% 0 mm WeatherDisplay:10.37 W/m2 FEW
06:45 -23.7 °C -24.5 °C 34476.3 hPa Calm     90% 0 mm WeatherDisplay:10.37 W/m2 FEW
06:50 -23.8 °C -24.5 °C 34486.4 hPa Calm   6 km/h 90% 0 mm WeatherDisplay:10.37 W/m2 FEW
06:55 -23.8 °C -24.5 °C 34486.4 hPa NNE 3.4 km/h 7.7 km/h 90% 0 mm WeatherDisplay:10.37 W/m2 FEW
07:00 -23.8 °C -24.5 °C 34486.4 hPa NNE 2.1 km/h 9 km/h 90% 0 mm WeatherDisplay:10.37 W/m2 FEW
07:05 -23.8 °C -24.6 °C 34486.4 hPa Calm     90% 0 mm WeatherDisplay:10.37 W/m2 FEW
07:15 -23.9 °C -24.7 °C 34486.4 hPa Calm     90% 0 mm WeatherDisplay:10.37 W/m2 FEW
07:25 -24.1 °C -24.9 °C 34486.4 hPa Calm     89% 0 mm WeatherDisplay:10.37 W/m2 FEW
07:35 -24.2 °C -24.9 °C 34486.4 hPa Calm     90% 0 mm WeatherDisplay:10.37 W/m2 FEW
07:40 -24.3 °C -25 °C 34486.4 hPa Calm     90% 0 mm WeatherDisplay:10.37 W/m2 FEW
07:45 -24.3 °C -25 °C 34486.4 hPa Calm     90% 0 mm WeatherDisplay:10.37 W/m2 FEW
07:50 -24.3 °C -25.1 °C 34486.4 hPa Calm     90% 0 mm WeatherDisplay:10.37 W/m2 FEW
07:55 -24.3 °C -25 °C 34486.4 hPa Calm     90% 0 mm WeatherDisplay:10.37 W/m2 FEW
07:57 -24.3 °C -25 °C 34486.4 hPa Calm     90% 0 mm WeatherDisplay:10.37 W/m2 FEW
08:02 -24.3 °C -25 °C 34486.4 hPa NNE 0.8 km/h 5.1 km/h 90% 0 mm WeatherDisplay:10.37 W/m2 FEW
08:07 -24.2 °C -24.9 °C 34486.4 hPa NNE 0.8 km/h 5.1 km/h 90% 0 mm WeatherDisplay:10.37 W/m2 FEW
08:12 -24.2 °C -24.9 °C 34496.6 hPa Calm     90% 0 mm WeatherDisplay:10.37 W/m2 FEW
08:17 -24.2 °C -24.9 °C 34496.6 hPa Calm     90% 0 mm WeatherDisplay:10.37 W/m2 FEW
08:27 -24.2 °C -24.9 °C 34510.1 hPa Calm     90% 0 mm WeatherDisplay:10.37 W/m2 FEW
08:32 -24.2 °C -24.9 °C 34510.1 hPa Calm     90% 0 mm WeatherDisplay:10.37 W/m2 FEW
08:37 -24.2 °C -24.9 °C 34510.1 hPa Calm     90% 0 mm WeatherDisplay:10.37 W/m2 FEW
08:42 -24.2 °C -24.9 °C 34510.1 hPa Calm     90% 0 mm WeatherDisplay:10.37 W/m2 FEW
08:47 -24.2 °C -24.9 °C 34510.1 hPa Calm     90% 0 mm WeatherDisplay:10.37 W/m2 FEW
08:52 -24.1 °C -24.9 °C 34510.1 hPa Calm     90% 0 mm WeatherDisplay:10.37 W/m2 FEW
08:57 -24.1 °C -24.9 °C 34510.1 hPa Calm     90% 0 mm WeatherDisplay:10.37 W/m2 FEW
09:02 -24.1 °C -24.8 °C 34510.1 hPa Calm     90% 0 mm WeatherDisplay:10.37 W/m2 FEW
09:07 -24.1 °C -24.8 °C 34510.1 hPa Calm     90% 0 mm WeatherDisplay:10.37 W/m2 FEW
09:22 -24.1 °C -24.8 °C 34520.3 hPa Calm     90% 0 mm WeatherDisplay:10.37 W/m2 FEW
09:32 -24 °C -24.7 °C 34520.3 hPa Calm     90% 0 mm WeatherDisplay:10.37 W/m2 FEW
09:37 -24 °C -24.7 °C 34520.3 hPa Calm     90% 0 mm WeatherDisplay:10.37 W/m2 FEW
09:47 -23.9 °C -24.7 °C 34533.8 hPa Calm     90% 0 mm WeatherDisplay:10.37 W/m2 FEW
09:52 -23.9 °C -24.6 °C 34533.8 hPa Calm     90% 0 mm WeatherDisplay:10.37 W/m2 FEW
09:57 -23.8 °C -24.6 °C 34533.8 hPa Calm     90% 0 mm WeatherDisplay:10.37 W/m2 FEW
10:02 -23.8 °C -24.6 °C 34533.8 hPa Calm     90% 0 mm WeatherDisplay:10.37 W/m2 FEW
10:07 -23.8 °C -24.6 °C 34533.8 hPa Calm     89% 0 mm WeatherDisplay:10.37 W/m2 FEW
10:12 -23.8 °C -24.6 °C 34533.8 hPa Calm     89% 0 mm WeatherDisplay:10.37 W/m2 FEW
10:17 -23.8 °C -24.6 °C 34533.8 hPa Calm     89% 0 mm WeatherDisplay:10.37 W/m2 FEW
10:22 -23.8 °C -24.6 °C 34533.8 hPa Calm     89% 0 mm WeatherDisplay:10.37 W/m2 FEW
10:27 -23.7 °C -24.6 °C 34533.8 hPa Calm     89% 0 mm WeatherDisplay:10.37 W/m2 FEW
10:32 -23.7 °C -24.5 °C 34533.8 hPa Calm     89% 0 mm WeatherDisplay:10.37 W/m2 FEW
10:37 -23.7 °C -24.5 °C 34544 hPa Calm     89% 0 mm WeatherDisplay:10.37 W/m2 FEW
10:47 -23.7 °C -24.6 °C 34544 hPa Calm     88% 0 mm WeatherDisplay:10.37 W/m2 FEW
10:52 -23.6 °C -24.4 °C 34544 hPa Calm     89% 0 mm WeatherDisplay:10.37 W/m2 FEW
10:57 -23.5 °C -24.3 °C 34544 hPa Calm     89% 0 mm WeatherDisplay:10.37 W/m2 FEW
11:02 -23.5 °C -24.4 °C 34544 hPa Calm     88% 0 mm WeatherDisplay:10.37 W/m2 FEW
11:07 -23.5 °C -24.4 °C 34544 hPa Calm     88% 0 mm WeatherDisplay:10.37 W/m2 FEW
11:13 -23.4 °C -24.3 °C 34544 hPa Calm     88% 0 mm WeatherDisplay:10.37 W/m2 FEW
11:18 -23.4 °C -24.3 °C 34554.1 hPa Calm     88% 0 mm WeatherDisplay:10.37 W/m2 FEW
11:23 -23.3 °C -24.1 °C 34554.1 hPa Calm     89% 0 mm WeatherDisplay:10.37 W/m2 FEW
11:28 -23.3 °C -24.1 °C 34554.1 hPa Calm     89% 0 mm WeatherDisplay:10.37 W/m2 FEW
11:38 -23.2 °C -24.1 °C 34554.1 hPa Calm     88% 0 mm WeatherDisplay:10.37 W/m2 FEW
11:43 -23.2 °C -24.1 °C 34554.1 hPa Calm     88% 0 mm WeatherDisplay:10.37 W/m2 FEW
11:48 -23.2 °C -24.1 °C 34554.1 hPa Calm     88% 0 mm WeatherDisplay:10.37 W/m2 FEW
11:53 -23.2 °C -24.1 °C 34567.7 hPa Calm     88% 0 mm WeatherDisplay:10.37 W/m2 FEW
11:58 -23.2 °C -24.1 °C 34567.7 hPa Calm     88% 0 mm WeatherDisplay:10.37 W/m2 FEW
12:03 -23.1 °C -24 °C 34567.7 hPa Calm     88% 0 mm WeatherDisplay:10.37 W/m2 FEW
12:08 -23.1 °C -24 °C 34567.7 hPa Calm     88% 0 mm WeatherDisplay:10.37 W/m2 FEW
12:18 -23 °C -23.9 °C 34567.7 hPa Calm     88% 0 mm WeatherDisplay:10.37 W/m2 FEW
12:23 -22.9 °C -23.8 °C 34567.7 hPa Calm     88% 0 mm WeatherDisplay:10.37 W/m2 FEW
12:28 -22.9 °C -23.8 °C 34567.7 hPa Calm     88% 0 mm WeatherDisplay:10.37 W/m2 FEW
12:33 -22.9 °C -23.8 °C 34567.7 hPa Calm     88% 0 mm WeatherDisplay:10.37 W/m2 FEW
12:38 -22.9 °C -23.8 °C 34567.7 hPa Calm     88% 0 mm WeatherDisplay:10.37 W/m2 FEW
12:43 -22.8 °C -23.7 °C 34567.7 hPa Calm     88% 0 mm WeatherDisplay:10.37 W/m2 FEW
12:48 -22.8 °C -23.7 °C 34567.7 hPa Calm     88% 0 mm WeatherDisplay:10.37 W/m2 FEW
12:53 -22.8 °C -23.7 °C 34567.7 hPa Calm     88% 0 mm WeatherDisplay:10.37 W/m2 FEW
12:58 -22.7 °C -23.7 °C 34567.7 hPa Calm     87% 0 mm WeatherDisplay:10.37 W/m2 FEW
13:03 -22.7 °C -23.6 °C 34567.7 hPa Calm     88% 0 mm WeatherDisplay:10.37 W/m2 FEW
13:08 -22.7 °C -23.6 °C 34567.7 hPa Calm     88% 0 mm WeatherDisplay:10.37 W/m2 FEW
13:18 -22.6 °C -23.5 °C 34567.7 hPa Calm     88% 0 mm WeatherDisplay:10.37 W/m2 FEW
13:23 -22.6 °C -23.5 °C 34567.7 hPa Calm     88% 0 mm WeatherDisplay:10.37 W/m2 FEW
13:28 -22.6 °C -23.6 °C 34567.7 hPa Calm     87% 0 mm WeatherDisplay:10.37 W/m2 FEW
13:38 -22.6 °C -23.4 °C 34554.1 hPa Calm     88% 0 mm WeatherDisplay:10.37 W/m2 FEW
13:43 -22.6 °C -23.4 °C 34567.7 hPa Calm     88% 0 mm WeatherDisplay:10.37 W/m2 FEW
13:48 -22.5 °C -23.4 °C 34554.1 hPa Calm     88% 0 mm WeatherDisplay:10.37 W/m2 FEW
13:53 -22.5 °C -23.4 °C 34554.1 hPa Calm     88% 0 mm WeatherDisplay:10.37 W/m2 FEW
13:58 -22.4 °C -23.4 °C 34554.1 hPa Calm     88% 0 mm WeatherDisplay:10.37 W/m2 FEW
14:03 -22.4 °C -23.4 °C 34554.1 hPa Calm     88% 0 mm WeatherDisplay:10.37 W/m2 FEW
14:08 -22.4 °C -23.4 °C 34567.7 hPa Calm     88% 0 mm WeatherDisplay:10.37 W/m2 FEW
14:13 -22.4 °C -23.3 °C 34554.1 hPa Calm     89% 0 mm WeatherDisplay:10.37 W/m2 FEW
14:23 -22.4 °C -23.2 °C 34567.7 hPa Calm     89% 0 mm WeatherDisplay:10.37 W/m2 FEW
14:28 -22.4 °C -23.2 °C 34567.7 hPa Calm     89% 0 mm WeatherDisplay:10.37 W/m2 FEW
14:33 -22.3 °C -23.2 °C 34554.1 hPa Calm     89% 0 mm WeatherDisplay:10.37 W/m2 FEW
14:38 -22.3 °C -23.2 °C 34567.7 hPa Calm     89% 0 mm WeatherDisplay:10.37 W/m2 FEW
14:48 -22.3 °C -23.2 °C 34554.1 hPa Calm     89% 0 mm WeatherDisplay:10.37 W/m2 FEW
14:53 -22.3 °C -23.2 °C 34554.1 hPa Calm     89% 0 mm WeatherDisplay:10.37 W/m2 FEW
14:58 -22.3 °C -23.1 °C 34554.1 hPa Calm     89% 0 mm WeatherDisplay:10.37 W/m2 FEW
15:08 -22.3 °C -23.1 °C 34554.1 hPa Calm     89% 0 mm WeatherDisplay:10.37 W/m2 FEW
15:18 -22.2 °C -23 °C 34554.1 hPa Calm     89% 0 mm WeatherDisplay:10.37 W/m2 FEW
15:23 -22.2 °C -23 °C 34554.1 hPa Calm     89% 0 mm WeatherDisplay:10.37 W/m2 FEW
15:28 -22.2 °C -23 °C 34554.1 hPa Calm     89% 0 mm WeatherDisplay:10.37 W/m2 FEW
15:33 -22.1 °C -22.9 °C 34554.1 hPa Calm     90% 0 mm WeatherDisplay:10.37 W/m2 FEW
15:43 -22.1 °C -22.8 °C 34554.1 hPa Calm     90% 0 mm WeatherDisplay:10.37 W/m2 FEW
15:53 -22.1 °C -22.8 °C 34554.1 hPa Calm     90% 0 mm WeatherDisplay:10.37 W/m2 FEW
15:56 -22.1 °C -22.8 °C 34554.1 hPa Calm     90% 0 mm WeatherDisplay:10.37 W/m2 FEW
16:01 -22 °C -22.7 °C 34554.1 hPa Calm     90% 0 mm WeatherDisplay:10.37 W/m2 FEW
16:06 -22 °C -22.7 °C 34554.1 hPa Calm     90% 0 mm WeatherDisplay:10.37 W/m2 FEW
16:11 -22 °C -22.7 °C 34554.1 hPa Calm     90% 0 mm WeatherDisplay:10.37 W/m2 FEW
16:16 -21.9 °C -22.7 °C 34554.1 hPa Calm     90% 0 mm WeatherDisplay:10.37 W/m2 FEW
16:21 -21.9 °C -22.7 °C 34554.1 hPa Calm     90% 0 mm WeatherDisplay:10.37 W/m2 FEW
16:26 -21.9 °C -22.6 °C 34554.1 hPa Calm     91% 0 mm WeatherDisplay:10.37 W/m2 FEW
16:31 -21.9 °C -22.6 °C 34554.1 hPa Calm     91% 0 mm WeatherDisplay:10.37 W/m2 FEW
16:36 -21.8 °C -22.6 °C 34554.1 hPa Calm     91% 0 mm WeatherDisplay:10.37 W/m2 FEW
16:41 -21.8 °C -22.6 °C 34554.1 hPa Calm     91% 0 mm WeatherDisplay:10.37 W/m2 FEW
16:46 -21.8 °C -22.5 °C 34554.1 hPa Calm     91% 0 mm WeatherDisplay:10.37 W/m2 FEW
16:51 -21.8 °C -22.4 °C 34554.1 hPa Calm     91% 0 mm WeatherDisplay:10.37 W/m2 FEW
16:56 -21.8 °C -22.4 °C 34554.1 hPa Calm     91% 0 mm WeatherDisplay:10.37 W/m2 FEW
17:01 -21.8 °C -22.4 °C 34554.1 hPa Calm     91% 0 mm WeatherDisplay:10.37 W/m2 FEW
17:06 -21.7 °C -22.4 °C 34554.1 hPa Calm     91% 0 mm WeatherDisplay:10.37 W/m2 FEW
17:11 -21.7 °C -22.4 °C 34554.1 hPa Calm     91% 0 mm WeatherDisplay:10.37 W/m2 FEW
17:16 -21.7 °C -22.4 °C 34544 hPa Calm     91% 0 mm WeatherDisplay:10.37 W/m2 FEW
17:21 -21.7 °C -22.3 °C 34544 hPa Calm     91% 0 mm WeatherDisplay:10.37 W/m2 FEW
17:26 -21.6 °C -22.2 °C 34544 hPa Calm     92% 0 mm WeatherDisplay:10.37 W/m2 FEW
17:31 -21.6 °C -22.2 °C 34544 hPa Calm     92% 0 mm WeatherDisplay:10.37 W/m2 FEW
17:36 -21.7 °C -22.3 °C 34544 hPa Calm     92% 0 mm WeatherDisplay:10.37 W/m2 FEW
17:46 -21.7 °C -22.3 °C 34544 hPa Calm     92% 0 mm WeatherDisplay:10.37 W/m2 FEW
17:51 -21.7 °C -22.3 °C 34554.1 hPa Calm     92% 0 mm WeatherDisplay:10.37 W/m2 FEW
17:56 -21.7 °C -22.3 °C 34544 hPa Calm     92% 0 mm WeatherDisplay:10.37 W/m2 FEW
18:06 -21.7 °C -22.3 °C 34544 hPa Calm     92% 0 mm WeatherDisplay:10.37 W/m2 FEW
18:11 -21.7 °C -22.3 °C 34544 hPa Calm     92% 0 mm WeatherDisplay:10.37 W/m2 FEW
18:16 -21.7 °C -22.3 °C 34544 hPa Calm     92% 0 mm WeatherDisplay:10.37 W/m2 FEW
18:21 -21.7 °C -22.3 °C 34544 hPa Calm     92% 0 mm WeatherDisplay:10.37 W/m2 FEW
18:26 -21.7 °C -22.3 °C 34544 hPa Calm     92% 0 mm WeatherDisplay:10.37 W/m2 FEW
18:31 -21.7 °C -22.3 °C 34544 hPa Calm     92% 0 mm WeatherDisplay:10.37 W/m2 FEW
18:36 -21.8 °C -22.3 °C 34544 hPa Calm     92% 0 mm WeatherDisplay:10.37 W/m2 FEW
18:41 -21.8 °C -22.4 °C 34544 hPa Calm     92% 0 mm WeatherDisplay:10.37 W/m2 FEW
18:46 -21.8 °C -22.4 °C 34544 hPa Calm     92% 0 mm WeatherDisplay:10.37 W/m2 FEW
18:51 -21.8 °C -22.4 °C 34544 hPa Calm     92% 0 mm WeatherDisplay:10.37 W/m2 FEW
18:56 -21.8 °C -22.4 °C 34533.8 hPa Calm     92% 0 mm WeatherDisplay:10.37 W/m2 FEW
19:11 -21.7 °C -22.3 °C 34533.8 hPa Calm     92% 0 mm WeatherDisplay:10.37 W/m2 FEW
19:16 -21.7 °C -22.3 °C 34533.8 hPa Calm     92% 0 mm WeatherDisplay:10.37 W/m2 FEW
19:21 -21.6 °C -22.2 °C 34520.3 hPa Calm     92% 0 mm WeatherDisplay:10.37 W/m2 FEW
19:26 -21.6 °C -22.2 °C 34520.3 hPa Calm     92% 0 mm WeatherDisplay:10.37 W/m2 FEW
19:31 -21.6 °C -22.2 °C 34520.3 hPa Calm     92% 0 mm WeatherDisplay:10.37 W/m2 FEW
19:36 -21.6 °C -22.1 °C 34520.3 hPa Calm     92% 0 mm WeatherDisplay:10.37 W/m2 FEW
19:41 -21.5 °C -22.1 °C 34520.3 hPa Calm     92% 0 mm WeatherDisplay:10.37 W/m2 FEW
19:46 -21.5 °C -22 °C 34520.3 hPa Calm     93% 0 mm WeatherDisplay:10.37 W/m2 FEW
19:51 -21.4 °C -22.1 °C 34510.1 hPa Calm     92% 0 mm WeatherDisplay:10.37 W/m2 FEW
19:56 -21.4 °C -22 °C 34510.1 hPa Calm     92% 0 mm WeatherDisplay:10.37 W/m2 FEW
20:01 -21.3 °C -21.8 °C 34510.1 hPa Calm     93% 0 mm WeatherDisplay:10.37 W/m2 FEW
20:06 -21.3 °C -21.8 °C 34510.1 hPa Calm     93% 0 mm WeatherDisplay:10.37 W/m2 FEW
20:11 -21.3 °C -21.8 °C 34510.1 hPa Calm     93% 0 mm WeatherDisplay:10.37 W/m2 FEW
20:16 -21.2 °C -21.7 °C 34510.1 hPa Calm     93% 0 mm WeatherDisplay:10.37 W/m2 FEW
20:21 -21.2 °C -21.7 °C 34496.6 hPa Calm     93% 0 mm WeatherDisplay:10.37 W/m2 FEW
20:26 -21.2 °C -21.7 °C 34496.6 hPa Calm     93% 0 mm WeatherDisplay:10.37 W/m2 FEW
20:31 -21.1 °C -21.6 °C 34496.6 hPa Calm     93% 0 mm WeatherDisplay:10.37 W/m2 FEW
20:36 -21.1 °C -21.6 °C 34486.4 hPa Calm     93% 0 mm WeatherDisplay:10.37 W/m2 FEW
20:41 -21 °C -21.5 °C 34486.4 hPa Calm     93% 0 mm WeatherDisplay:10.37 W/m2 FEW
20:46 -20.9 °C -21.5 °C 34486.4 hPa Calm     93% 7.62 mm WeatherDisplay:10.37 W/m2 RA
20:51 -20.9 °C -21.4 °C 34476.3 hPa Calm     93% 7.62 mm WeatherDisplay:10.37 W/m2 RA
20:56 -20.9 °C -21.4 °C 34476.3 hPa Calm     93% 7.62 mm WeatherDisplay:10.37 W/m2 FEW
21:01 -20.8 °C -21.3 °C 34476.3 hPa Calm     93% 7.62 mm WeatherDisplay:10.37 W/m2 FEW
21:11 -20.8 °C -21.3 °C 34476.3 hPa Calm     93% 7.62 mm WeatherDisplay:10.37 W/m2 FEW
21:16 -20.7 °C -21.2 °C 34476.3 hPa Calm   2.6 km/h 93% 7.62 mm WeatherDisplay:10.37 W/m2 FEW
21:21 -20.7 °C -21.2 °C 34476.3 hPa Calm     93% 7.62 mm WeatherDisplay:10.37 W/m2 FEW
21:31 -20.5 °C -21 °C 34462.7 hPa Calm     93% 12.7 mm WeatherDisplay:10.37 W/m2 RA
21:39 -20.4 °C -20.9 °C 34462.7 hPa Calm     93% 12.7 mm WeatherDisplay:10.37 W/m2 FEW
21:44 -20.3 °C -20.8 °C 34462.7 hPa Calm   6 km/h 94% 12.7 mm WeatherDisplay:10.37 W/m2 FEW
21:49 -20.2 °C -20.7 °C 34462.7 hPa Calm     93% 7.62 mm WeatherDisplay:10.37 W/m2 FEW
21:54 -20.1 °C -20.5 °C 34462.7 hPa Calm     94% 7.62 mm WeatherDisplay:10.37 W/m2 FEW
21:59 -19.9 °C -20.4 °C 34462.7 hPa Calm   3.1 km/h 93% 7.62 mm WeatherDisplay:10.37 W/m2 FEW
22:04 -19.9 °C -20.4 °C 34462.7 hPa Calm     94% 7.62 mm WeatherDisplay:10.37 W/m2 FEW
22:09 -19.9 °C -20.3 °C 34462.7 hPa NNE 1.8 km/h 9 km/h 94% 12.7 mm WeatherDisplay:10.37 W/m2 RA
22:14 -19.8 °C -20.3 °C 34462.7 hPa NNE 0.8 km/h 7.7 km/h 93% 12.7 mm WeatherDisplay:10.37 W/m2 RA
22:19 -19.7 °C -20.2 °C 34462.7 hPa Calm     93% 12.7 mm WeatherDisplay:10.37 W/m2 FEW
22:24 -19.6 °C -20 °C 34452.6 hPa NNE 0.5 km/h 6 km/h 94% 7.62 mm WeatherDisplay:10.37 W/m2 FEW
22:29 -19.4 °C -19.9 °C 34452.6 hPa SSE 6.9 km/h 9 km/h 93% 7.62 mm WeatherDisplay:10.37 W/m2 FEW
22:39 -19 °C -19.6 °C 34452.6 hPa SSE 4.7 km/h 15 km/h 93% 12.7 mm WeatherDisplay:10.37 W/m2 RA
22:44 -18.8 °C -19.4 °C 34452.6 hPa SSE 4.7 km/h 23.8 km/h 93% 12.7 mm WeatherDisplay:10.37 W/m2 FEW
22:49 -18.7 °C -19.2 °C 34452.6 hPa SSE 3.1 km/h 11.9 km/h 93% 12.7 mm WeatherDisplay:10.37 W/m2 FEW
22:54 -18.6 °C -19.1 °C 34452.6 hPa Calm     93% 12.7 mm WeatherDisplay:10.37 W/m2 FEW
22:59 -18.5 °C -19.1 °C 34452.6 hPa SSE 1.8 km/h 3.1 km/h 93% 12.7 mm WeatherDisplay:10.37 W/m2 FEW
23:04 -18.4 °C -19 °C 34452.6 hPa WSW 1.3 km/h 9 km/h 93% 12.7 mm WeatherDisplay:10.37 W/m2 FEW
23:09 -18.4 °C -19 °C 34452.6 hPa SSE 0.5 km/h 6 km/h 93% 7.62 mm WeatherDisplay:10.37 W/m2 FEW
23:19 -18.4 °C -19 °C 34452.6 hPa South 1.8 km/h 11.9 km/h 93% 7.62 mm WeatherDisplay:10.37 W/m2 FEW
23:24 -18.4 °C -18.9 °C 34452.6 hPa Calm   9 km/h 93% 7.62 mm WeatherDisplay:10.37 W/m2 FEW
23:29 -18.4 °C -18.9 °C 34452.6 hPa Calm   2.6 km/h 93% 7.62 mm WeatherDisplay:10.37 W/m2 FEW
23:34 -18.4 °C -18.9 °C 34452.6 hPa Calm     93% 0 mm WeatherDisplay:10.37 W/m2 FEW
23:39 -18.4 °C -18.9 °C 34452.6 hPa Calm   9 km/h 93% 0 mm WeatherDisplay:10.37 W/m2 FEW
23:44 -18.4 °C -18.9 °C 34442.4 hPa SSE 6.4 km/h 26.9 km/h 93% 0 mm WeatherDisplay:10.37 W/m2 FEW
23:49 -18.4 °C -18.8 °C 34442.4 hPa Calm   6 km/h 94% 0 mm WeatherDisplay:10.37 W/m2 FEW
23:54 -18.4 °C -18.9 °C 34428.8 hPa South 6.8 km/h 20.9 km/h 93% 0 mm WeatherDisplay:10.37 W/m2 FEW
23:59 -18.4 °C -18.9 °C 34428.8 hPa SSE 1.8 km/h 2.6 km/h 93% 7.62 mm WeatherDisplay:10.37 W/m2 RA
Tuulensuunkaari, Veikkola, Suomi
Compliments of Weather Underground - 2.5 mb